Home > Time Zones > World Clock > Weather > China > Sian > Past weeks

Flag for China Weather past 2 weeks in Sian, Shaanxi, China

Now
55 °F

Fog.


Feels Like: 54 °F
Forecast: 55 / 79 °F
Wind: 6 mph from East

Location: Xian/Xianyang

Current Time: Oct 22, 2014 at 9:09:33 AM

Latest Report: Oct 22, 2014 at 8:00 AM


Visibility: 1 mi

Pressure: 30.24 "Hg

Humidity: 94%

Dew point: 54 °F

Location of SianLocation

Historic Weather in Sian — Graph

°F

Sian temperature yesterday

Maximum temperature yesterday: 72 °F (at 3:00 PM)
Minimum temperature yesterday: 52 °F (at 7:00 AM)
Average temperature yesterday: 59 °F

Past Weeks' High & Low Weather Summary

 TemperatureHumidityPressure
High77 °F (Oct 9, 2:00 PM)100% (Oct 8, 5:00 AM)30.57 "Hg (Oct 8, 5:00 AM)
Low37 °F (Oct 14, 6:00 AM)43% (Oct 14, 4:00 PM)29.89 "Hg (Oct 9, 4:00 PM)
Average59 °F77%30.16 "Hg
* Reported Oct 7 7:00 AM — Oct 22 7:00 AM, Sian, Weather by CustomWeather, © 2014

Note: Actual official high and low records may vary slightly from our data, if they occured in-between our weather recording intervals... More about our weather records

Advertising

Sian weather history for previous 24 hours

 ConditionsComfort  
Time TempWeatherWind HumidityBarometerVisibility
7:00 AM
Oct 22
54 °FFog.1 mph94%30.21 "Hg1 mi
6:00 AM52 °FFog.1 mph94%30.21 "Hg1 mi
5:00 AM48 °FFog.No wind100%30.18 "Hg1 mi
4:00 AM46 °FFog.No wind93%30.18 "Hg1 mi
3:00 AM46 °FFog.1 mph100%30.18 "Hg1 mi
2:00 AM50 °FFog.1 mph94%30.18 "Hg1 mi
1:00 AM50 °FFog.1 mph100%30.18 "Hg1 mi
12:00 AM54 °FFog.1 mph94%30.18 "Hg1 mi
11:00 PM
Oct 21
54 °FFog.1 mph94%30.18 "Hg1 mi
10:00 PM55 °FFog.3 mph94%30.18 "Hg1 mi
9:00 PM57 °FFog.6 mph94%30.18 "Hg1 mi
8:00 PM59 °FFog.6 mph88%30.15 "Hg1 mi
7:00 PM61 °FFog.6 mph83%30.15 "Hg2 mi
6:00 PM64 °FHaze.6 mph73%30.12 "Hg2 mi
5:00 PM70 °FHaze.3 mph60%30.12 "Hg2 mi
4:00 PM72 °FHaze.3 mph57%30.12 "Hg2 mi
3:00 PM72 °FHaze.3 mph53%30.15 "Hg2 mi
2:00 PM70 °FHaze.1 mph53%30.18 "Hg2 mi
1:00 PM68 °FHaze.1 mph60%30.21 "Hg2 mi
12:00 PM64 °FFog.1 mph78%30.24 "Hg1 mi
11:00 AM59 °FFog.1 mph94%30.24 "Hg1 mi
10:00 AM54 °FFog.3 mph100%30.27 "Hg1 mi
9:00 AM54 °FFog.1 mph94%30.24 "Hg0 mi
Weather by CustomWeather, © 2014

See weather overviewHow to use our weather pages